Regional Weather Roundup
Issued by NWS

Home | Current Version | Previous Version | Text Only | Print | Product List | Glossary On
Versions: 1 2 3 4 5 6 7 8 9 10 11 12 13 14 15 16 17 18 19 20 21 22 23 24 25 26 27 28 29 30 31 32 33 34 35 36 37 38 39 40 41 42 43 44 45 46 47 48 49 50
000
ASUS45 KPSR 120810
RWRAZ

ARIZONA HOURLY REGIONAL WEATHER ROUNDUP
NATIONAL WEATHER SERVICE PHOENIX AZ
100 AM MST FRI FEB 12 2016

NOTE: FAIR INDICATES FEW OR NO CLOUDS BELOW 12,000 FEET WITH NO
SIGNIFICANT WEATHER AND/OR OBSTRUCTIONS TO VISIBILITY.

AZZ001>003-036-120900-
NORTHWEST ARIZONA

CITY           SKY/WX    TMP DP  RH WIND       PRES   REMARKS
BULLHEAD CITY  CLEAR     59  32  36 N8        30.17S
KINGMAN        CLEAR     38  25  59 CALM      30.26S
$$

AZZ004>008-015-016-018-120900-
NORTH CENTRAL ARIZONA

CITY           SKY/WX    TMP DP  RH WIND       PRES   REMARKS
GRAND CANYON   MOCLDY    25  19  78 E3        30.40F
WILLIAMS       MOCLDY    34  19  55 S12       30.45S WCI  25
PRESCOTT       PTCLDY    38  23  55 S6        30.32F WCI  33
FLAGSTAFF      PTCLDY    25  19  78 CALM      30.41F
PAYSON         CLEAR     48  14  25 NE5       30.32F
PAGE           MOCLDY    39  29  67 CALM      30.36S
$$

AZZ009>014-017-120900-
NORTHEAST ARIZONA

CITY           SKY/WX    TMP DP  RH WIND       PRES   REMARKS
WINSLOW        CLOUDY    29  18  63 SE5       30.37S WCI  24
SAINT JOHNS    PTCLDY    33  13  43 S6        30.37S WCI  28
WINDOW ROCK    CLEAR     27   0  31 S5        30.41S WCI  22
SHOW LOW       PTCLDY    28  16  59 CALM      30.40S
$$

AZZ023-120900-
GREATER PHOENIX AREA

CITY           SKY/WX    TMP DP  RH WIND       PRES   REMARKS
PHOENIX        CLEAR     61  37  41 E5        30.11S
BUCKEYE        CLEAR     54  28  37 CALM      30.15S
LUKE AFB       CLEAR     56  35  44 N6        30.11F
DEER VALLEY    CLEAR     62  29  28 N6        30.13S
SCOTTSDALE     CLEAR     55  35  47 CALM      30.14S
MESA-GATEWAY   CLEAR     52  36  54 SE8       30.14S
$$

AZZ027-028-120900-
SOUTHWEST MARICOPA COUNTY AND PINAL COUNTY

CITY           SKY/WX    TMP DP  RH WIND       PRES   REMARKS
CASA GRANDE    CLEAR     52  30  43 CALM      30.15S
GILA BEND      FAIR      52  31  44 E7        30.12R
$$

AZZ503-504-507>509-120900-
SOUTHEAST ARIZONA

CITY           SKY/WX    TMP DP  RH WIND       PRES   REMARKS
TUCSON         CLEAR     51  26  37 SE8       30.21S
DAVIS-MONTHAN  CLEAR     52  24  33 SE9       30.19S
NOGALES        CLEAR     47  17  30 S3        30.24S
SIERRA VISTA   CLEAR     50  16  25 SW8       30.28F
DOUGLAS        PTCLDY    39  11  31 CALM      30.26S
SAFFORD        CLEAR     43  22  43 CALM      30.22R
$$

AZZ020-021-025-026-031-120900-
SOUTHWEST ARIZONA

CITY           SKY/WX    TMP DP  RH WIND       PRES   REMARKS
YUMA           CLEAR     61  29  29 E5        30.10S
$$

CAZ031-033-041-043-047-048-061-120900-
SOUTHERN CALIFORNIA

CITY           SKY/WX    TMP DP  RH WIND       PRES   REMARKS
DOWNTOWN L.A.  CLEAR     60  42  51 CALM      30.11R
L.A. AIRPORT   PTCLDY    62  41  46 CALM      30.11S
SAN DIEGO      CLEAR     63  36  36 CALM      30.12S
BURBANK        CLEAR     61  34  36 CALM      30.12S
ONTARIO        CLEAR     60  38  43 CALM      30.14S
RIVERSIDE      CLEAR     60  34  37 E3        30.14S
PALM SPRINGS   CLEAR     61  28  28 N7        30.14S
EL CENTRO NAS  CLEAR     55  26  32 W7        30.12S
IMPERIAL       CLEAR     55  29  36 W8        30.10S
BLYTHE         CLEAR     56  25  30 CALM      30.13R
NEEDLES        CLEAR     56  26  31 W7        30.16S
$$

NVZ020-UTZ003-120900-
SOUTHERN NEVADA-UTAH

CITY           SKY/WX    TMP DP  RH WIND       PRES   REMARKS
LAS VEGAS      CLEAR     53  22  29 SW3       30.19S
SALT LAKE CITY CLOUDY    30  28  92 N5        30.45R FOG     WCI  25
$$

NMZ009-TXZ055-120900-
NEW MEXICO-WEST TEXAS

CITY           SKY/WX    TMP DP  RH WIND       PRES   REMARKS
ALBUQUERQUE    CLOUDY    46  18  32 N5        30.34S
EL PASO        PTCLDY    44  18  35 N3        30.24R
$$


........................KEY........................
SKY/WX - SKY CONDITION/WEATHER
TMP    - TEMPERATURE IN FAHRENHEIT
DP     - DEW POINT IN FAHRENHEIT
RH     - RELATIVE HUMIDITY IN PERCENT
WIND   - DIRECTION AND SPEED IN MILES PER HOUR (MPH)
VRB    - VARIABLE WIND DIRECTION
PRES   - MEAN SEA LEVEL PRESSURE IN INCHES OF MERCURY
         F - FALLING PRESSURE   R - RISING PRESSURE
         S - STEADY PRESSURE
VSB    - VISIBILITY IN MILES
HX     - HEAT INDEX IN FAHRENHEIT
WCI    - WIND CHILL INDEX IN FAHRENHEIT
TC     - TEMPERATURE IN CELSIUS WHICH IS ALSO KNOWN AS
         TEMPERATURE IN CENTIGRADE
AFB    - AIR FORCE BASE
         LUKE AFB IS LUKE AIR FORCE BASE
         DAVIS-MONTHAN IS DAVIS-MONTHAN AIR FORCE BASE
NAS    - NAVAL AIR STATION
         EL CENTRO NAS IS EL CENTRO NAVAL AIR STATION
N/A    - NOT AVAILABLE




USA.gov is the U.S. government's official web portal to all federal, state and local government web resources and services.